User: anonymous   Login
Location: Unspecified
(0.0000°N, 0.0000°E)
Time: 03:34:06
(UTC+00:00)
Language:

SOHLA-1 (MAIDO-1) - Orbit

View from above orbital plane
View from above orbital plane
View from above satellite
View from above satellite

Ground track
Ground track

The orbit data is extracted from the following two-line orbital elements,

1 33496U 09002E   17173.91984184 +.00000018 +00000-0 +11381-4 0  9996
2 33496 098.3145 323.8054 0006133 359.8607 152.0677 14.71692430451086
Epoch (UTC): 22 June 2017 22:04:34
Eccentricity: 0.0006133
inclination: 98.3145°
perigee height: 651 km
apogee height: 660 km
right ascension of ascending node: 323.8054°
argument of perigee: 359.8607°
revolutions per day: 14.71692430
mean anomaly at epoch: 152.0677°
orbit number at epoch: 45108

The dashed part of the orbit path shows where the satellite is in the earth's shadow,  

DLR